CAPE
0 0 0 0 0 0 0 0 0 0 0 0 0 0 0 0 0 0 0 0 0 0 0 0 0 0 0 0 0 1 2 3 5 9 15 18 17 20
0 0 0 0 0 0 0 0 0 0 0 0 0 0 0 0 0 0 0 0 0 0 0 0 0 0 0 0 0 0 1 2 5 8 10 14 15 15
0 0 0 0 0 0 0 0 0 0 0 0 0 0 0 0 0 0 0 0 0 0 0 0 0 0 0 0 0 0 1 1 2 4 6 8 7 6
0 0 0 0 0 0 0 0 0 0 0 0 0 0 0 0 0 0 0 0 0 0 0 0 0 0 0 0 0 0 0 0 1 3 2 1 5 7
0 0 0 0 0 0 0 0 0 0 0 0 0 0 0 0 0 0 0 0 0 0 0 0 0 0 0 0 0 0 0 0 0 0 0 1 3 3
0 0 0 0 0 0 0 0 0 0 0 0 0 0 0 0 0 0 0 0 0 0 0 0 0 0 0 0 0 0 0 0 0 0 0 0 0 1
0 0 0 0 0 0 0 0 0 0 0 0 0 0 0 0 0 0 0 0 0 0 0 0 0 0 0 0 0 0 0 0 0 0 0 0 0 0
0 0 0 0 0 0 0 0 0 0 0 0 0 0 0 0 0 0 0 0 0 0 0 0 0 0 0 0 0 0 0 0 0 0 0 0 0 0
0 0 0 0 0 0 0 0 0 0 0 0 0 0 0 0 0 0 0 0 0 0 0 0 0 0 0 0 0 0 0 0 0 0 0 0 0 0
0 0 0 0 0 0 0 0 0 0 0 0 0 0 0 0 0 0 0 0 0 0 0 0 0 0 0 0 0 0 0 0 0 0 0 0 0 0
0 0 0 0 0 0 0 0 0 0 0 0 0 0 0 0 0 0 0 0 0 0 0 0 0 0 0 0 0 0 0 0 0 0 0 0 0 0
0 0 0 0 0 0 0 0 0 0 0 0 0 0 0 0 0 0 0 0 0 0 0 0 0 0 0 0 0 0 0 0 0 0 0 0 0 0
0 0 0 0 0 0 0 0 0 0 0 0 0 0 0 0 0 0 0 0 0 0 0 0 0 0 0 0 0 0 0 0 0 0 0 0 0 0
0 0 0 0 0 0 0 0 0 0 0 0 0 0 0 0 0 0 0 0 0 0 0 0 0 0 0 0 0 0 0 0 0 0 0 0 0 0
0 0 0 0 0 0 0 0 0 0 0 0 0 0 0 0 0 0 0 0 0 0 0 0 0 0 0 0 0 0 0 0 0 0 0 0 0 0
0 0 0 0 0 0 0 0 0 0 0 0 0 0 0 0 0 0 0 0 0 0 0 0 0 0 0 0 0 0 0 0 0 0 0 0 0 0
0 0 0 0 0 0 0 0 0 0 0 0 0 0 0 0 0 0 0 0 0 0 0 0 0 0 0 0 0 0 0 0 0 0 0 0 0 0
0 0 0 0 0 0 0 0 0 0 0 0 0 0 0 0 0 0 0 0 0 0 0 0 0 0 0 0 0 0 0 0 0 0 0 0 0 0
0 0 0 0 0 0 0 0 0 0 0 0 0 0 0 0 0 0 0 0 0 0 0 0 0 0 0 0 0 0 0 0 0 0 0 0 0 0
0 0 0 0 0 0 0 0 0 0 0 0 0 0 0 0 0 0 0 0 0 0 0 0 0 0 0 0 0 0 0 0 0 0 0 0 0 0
0 0 0 0 0 0 0 0 0 0 0 0 0 0 0 0 0 0 0 0 0 0 0 0 0 0 0 0 0 0 0 0 0 0 0 0 0 0
0 0 0 0 0 0 0 0 0 0 0 0 0 0 0 0 0 0 0 0 0 0 0 0 0 0 0 0 0 0 0 0 0 0 0 0 0 0
0 0 0 0 0 0 0 0 0 0 0 0 0 0 0 0 0 0 0 0 0 0 0 0 0 0 0 0 0 0 0 0 0 0 0 0 0 0
CIN
-0 -0 -0 -0 -0 -0 -0 -0 -0 -0 -0 -0 -0 -0 -0 -0 -0 -0 -0 -0 -0 -0 -0 -0 -0 -0 -0 -0 -0 -0 -0 -0 -0 -0 -0 -0 -0 -0
-0 -0 -0 -0 -0 -0 -0 -0 -0 -0 -0 -0 -0 -0 -0 -0 -0 -0 -0 -0 -0 -0 -0 -0 -0 -0 -0 -0 -0 -0 -0 -0 -0 -0 -0 -0 -0 -0
-0 -0 -0 -0 -0 -0 -0 -0 -0 -0 -0 -0 -0 -0 -0 -0 -0 -0 -0 -0 -0 -0 -0 -0 -0 -0 -0 -0 -0 -0 -0 -0 -0 -0 -0 -0 -0 -0
-0 -0 -0 -0 -0 -0 -0 -0 -0 -0 -0 -0 -0 -0 -0 -0 -0 -0 -0 -0 -0 -0 -0 -0 -0 -0 -0 -0 -0 -0 -0 -0 -0 -0 -0 -0 -0 -0
-0 -0 -0 -0 -0 -0 -0 -0 -0 -0 -0 -0 -0 -0 -0 -0 -0 -0 -0 -0 -0 -0 -0 -0 -0 -0 -0 -0 -0 -0 -0 -0 -0 -0 -0 -0 -0 -0
-0 -0 -0 -0 -0 -0 -0 -0 -0 -0 -0 -0 -0 -0 -0 -0 -0 -0 -0 -0 -0 -0 -0 -0 -0 -0 -0 -0 -0 -0 -0 -0 -0 -0 -0 -0 -0 -0
-0 -0 -0 -0 -0 -0 -0 -0 -0 -0 -0 -0 -0 -0 -0 -0 -0 -0 -0 -0 -0 -0 -0 -0 -0 -0 -0 -0 -0 -0 -0 -0 -0 -0 -0 -0 -0 -0
-0 -0 -0 -0 -0 -0 -0 -0 -0 -0 -0 -0 -0 -0 -0 -0 -0 -0 -0 -0 -0 -0 -0 -0 -0 -0 -0 -0 -0 -0 -0 -0 -0 -0 -0 -0 -0 -0
-0 -0 -0 -0 -0 -0 -0 -0 -0 -0 -0 -0 -0 -0 -0 -0 -0 -0 -0 -0 -0 -0 -0 -0 -0 -0 -0 -0 -0 -0 -0 -0 -0 -0 -0 -0 -0 -0
-0 -0 -0 -0 -0 -0 -0 -0 -0 -0 -0 -0 -0 -0 -0 -0 -0 -0 -0 -0 -0 -0 -0 -0 -0 -0 -0 -0 -0 -0 -0 -0 -0 -0 -0 -0 -0 -0
-0 -0 -0 -0 -0 -0 -0 -0 -0 -0 -0 -0 -0 -0 -0 -0 -0 -0 -0 -0 -0 -0 -0 -0 -0 -0 -0 -0 -0 -0 -0 -0 -0 -0 -0 -0 -0 -0
-0 -0 -0 -0 -0 -0 -0 -0 -0 -0 -0 -0 -0 -0 -0 -0 -0 -0 -0 -0 -0 -0 -0 -0 -0 -0 -0 -0 -0 -0 -0 -0 -0 -0 -0 -0 -0 -0
-0 -0 -0 -0 -0 -0 -0 -0 -0 -0 -0 -0 -0 -0 -0 -0 -0 -0 -0 -0 -0 -0 -0 -0 -0 -0 -0 -0 -0 -0 -0 -0 -0 -0 -0 -0 -0 -0
-0 -0 -0 -0 -0 -0 -0 -0 -0 -0 -0 -0 -0 -0 -0 -0 -0 -0 -0 -0 -0 -0 -0 -0 -0 -0 -0 -0 -0 -0 -0 -0 -0 -0 -0 -0 -0 -0
-0 -0 -0 -0 -0 -0 -0 -0 -0 -0 -0 -0 -0 -0 -0 -0 -0 -0 -0 -0 -0 -0 -0 -0 -0 -0 -0 -0 -0 -0 -0 -0 -0 -0 -0 -0 -0 -0
-0 -0 -0 -0 -0 -0 -0 -0 -0 -0 -0 -0 -0 -0 -0 -0 -0 -0 -0 -0 -0 -0 -0 -0 -0 -0 -0 -0 -0 -0 -0 -0 -0 -0 -0 -0 -0 -0
-0 -0 -0 -0 -0 -0 -0 -0 -0 -0 -0 -0 -0 -0 -0 -0 -0 -0 -0 -0 -0 -0 -0 -0 -0 -0 -0 -0 -0 -0 -0 -0 -0 -0 -0 -0 -0 -0
-0 -0 -0 -0 -0 -0 -0 -0 -0 -0 -0 -0 -0 -0 -0 -0 -0 -0 -0 -0 -0 -0 -0 -0 -0 -0 -0 -0 -0 -0 -0 -0 -0 -0 -0 -0 -0 -0
-0 -0 -0 -0 -0 -0 -0 -0 -0 -0 -0 -0 -0 -0 -0 -0 -0 -0 -0 -0 -0 -0 -0 -0 -0 -0 -0 -0 -0 -0 -0 -0 -0 -0 -0 -0 -0 -0
-0 -0 -0 -0 -0 -0 -0 -0 -0 -0 -0 -0 -0 -0 -0 -0 -0 -0 -0 -0 -0 -0 -0 -0 -0 -0 -0 -0 -0 -0 -0 -0 -0 -0 -0 -0 -0 -0
-0 -0 -0 -0 -0 -0 -0 -0 -0 -0 -0 -0 -0 -0 -0 -0 -0 -0 -0 -0 -0 -0 -0 -0 -0 -0 -0 -0 -0 -0 -0 -0 -0 -0 -0 -0 -0 -0
-0 -0 -0 -0 -0 -0 -0 -0 -0 -0 -0 -0 -0 -0 -0 -0 -0 -0 -0 -0 -0 -0 -0 -0 -0 -0 -0 -0 -0 -0 -0 -0 -0 -0 -0 -0 -0 -0
-0 -0 -0 -0 -0 -0 -0 -0 -0 -0 -0 -0 -0 -0 -0 -0 -0 -0 -0 -0 -0 -0 -0 -0 -0 -0 -0 -0 -0 -0 -0 -0 -0 -0 -0 -0 -0 -0
Wind_Speed
9 7 4 3 4 4 5 8 6 5 6 4 3 4 3 3 4 4 3 8 7 7 8 8 8 8 8 9 10 11 12 13 14 16 17 18 19 20
7 8 5 4 5 4 5 4 2 5 5 3 3 3 4 3 4 4 3 6 7 7 7 6 5 6 7 7 8 10 11 13 14 16 17 18 19 20
10 9 7 7 5 5 4 3 3 3 5 1 2 1 2 4 3 2 3 4 3 4 5 4 4 4 5 5 7 9 11 12 13 14 15 16 18 19
13 10 8 6 7 6 5 5 4 3 5 5 2 2 3 2 3 4 2 3 2 3 4 3 3 5 4 4 5 9 10 11 11 14 16 17 18 20
15 14 10 9 7 5 5 5 4 3 3 5 4 2 3 2 3 3 2 2 1 5 5 4 4 4 3 3 5 8 9 10 11 14 14 16 18 20
14 12 12 12 12 10 9 7 6 5 4 6 4 4 3 2 3 3 2 1 1 3 4 4 4 3 4 4 6 7 8 10 12 14 14 16 17 19
12 12 11 12 15 14 10 8 8 5 5 4 4 3 3 4 5 4 3 2 0 0 0 0 1 1 2 3 3 5 7 10 12 13 13 16 18 19
14 9 8 13 14 17 13 16 13 10 7 5 4 5 4 4 4 4 4 3 3 1 2 1 1 1 1 1 3 5 7 10 12 12 13 17 19 20
14 13 9 6 12 10 14 14 11 9 8 7 7 6 6 9 8 5 4 3 3 2 2 1 0 2 2 3 2 4 8 11 12 12 12 17 18 20
15 16 13 12 10 12 11 8 6 5 6 4 6 5 4 10 10 5 5 5 3 2 1 1 1 2 2 2 5 3 7 12 14 12 15 18 19 20
12 13 14 13 18 21 12 10 7 4 4 7 8 12 13 19 14 9 4 4 1 2 1 2 1 3 2 2 2 3 5 13 14 11 17 18 19 20
9 10 20 16 22 22 13 12 9 5 8 8 8 12 10 13 12 4 6 4 3 2 2 2 0 2 3 1 1 1 3 11 11 12 19 20 20 5
10 9 7 23 22 19 16 9 7 11 12 9 7 7 7 6 5 5 4 4 3 2 2 3 1 2 1 3 2 1 1 4 3 5 15 18 21 17
13 9 12 23 22 19 13 20 24 16 7 6 7 6 6 6 5 6 6 5 5 5 4 3 3 2 1 2 3 2 2 2 3 7 7 12 18 20
9 15 23 23 22 15 23 25 20 9 8 7 7 5 3 5 7 5 6 8 8 5 3 4 3 2 3 2 2 2 5 2 2 8 9 9 9 9
18 16 14 15 15 13 17 13 6 7 8 8 7 7 5 4 4 2 3 3 3 3 5 5 4 2 1 2 2 2 2 2 5 6 8 9 9 8
16 12 9 8 10 8 7 7 7 6 8 8 9 8 6 5 3 2 2 2 3 2 1 3 3 2 3 4 1 1 2 2 3 7 7 9 9 8
12 11 10 9 9 9 9 8 6 8 7 8 8 8 7 5 5 2 3 3 3 1 2 2 3 4 4 2 4 1 2 2 5 6 6 7 8 7
9 9 10 9 9 8 9 9 7 6 8 8 8 7 7 5 7 4 4 3 2 2 0 1 3 3 3 2 3 4 2 3 2 5 3 3 9 11
8 10 10 9 10 9 8 8 8 8 7 7 7 7 6 6 5 5 4 4 3 2 2 1 1 1 4 4 3 3 12 4 5 7 6 5 9 19
8 9 9 9 8 8 8 8 9 8 8 8 7 6 6 5 5 4 4 8 6 3 1 1 1 3 2 3 4 4 3 11 10 7 8 6 3 4
8 8 8 9 9 9 9 9 9 9 8 7 6 6 5 5 5 5 4 4 3 3 3 1 3 2 3 2 3 4 6 5 14 14 12 8 3 5
8 9 8 8 8 9 9 9 9 8 7 7 7 6 6 6 5 5 4 4 3 3 1 2 2 2 0 3 3 3 5 6 4 8 8 11 15 18
Wind_Direction
165 149 145 151 135 133 134 160 134 145 205 205 163 202 180 164 147 113 96 116 108 100 86 75 66 59 54 48 41 32 25 22 16 11 9 6 6 5
154 150 149 141 143 136 150 144 121 134 139 154 208 156 178 148 159 129 117 91 121 109 93 81 71 62 58 47 40 27 20 16 13 10 6 5 4 2
158 159 160 146 152 145 134 131 126 108 114 130 108 132 122 145 111 110 94 88 43 101 107 92 87 76 60 49 37 24 16 12 8 6 3 2 1 357
167 161 159 147 147 148 155 158 149 130 124 135 133 127 123 144 134 122 133 104 70 70 119 119 101 79 50 46 33 24 14 12 4 2 3 1 355 353
168 168 159 150 152 160 164 154 137 118 112 136 136 133 110 117 106 82 108 91 45 56 70 76 71 87 38 43 28 24 15 5 3 1 360 357 354 351
168 165 159 166 166 165 172 156 138 126 107 115 87 105 114 119 106 129 140 86 199 42 47 77 73 62 37 56 36 23 15 7 1 360 359 355 351 348
165 163 165 168 172 171 163 159 141 126 131 120 111 118 147 156 174 161 124 125 251 100 101 359 32 338 2 18 350 18 15 4 2 359 352 350 347 347
160 156 157 152 160 167 156 159 159 146 152 138 155 162 182 144 136 145 122 141 216 207 153 244 222 250 239 279 343 24 16 4 1 354 351 347 345 347
162 152 149 155 150 145 143 148 152 152 166 151 161 179 163 174 136 130 147 147 162 180 118 244 236 275 214 253 295 5 16 7 359 351 351 348 345 344
160 162 153 150 152 139 134 129 127 123 140 161 165 162 136 156 148 142 137 109 86 87 129 196 355 263 272 264 242 340 13 7 360 351 350 348 347 340
154 153 152 151 153 144 135 128 114 88 104 116 131 141 162 145 128 119 127 112 96 173 80 115 345 300 320 330 261 279 8 3 355 354 352 350 345 343
140 145 155 150 152 148 138 141 132 144 117 97 99 100 107 124 127 90 139 125 121 83 191 111 287 19 343 346 309 324 349 351 351 350 347 348 344 342
144 141 150 145 149 148 143 147 141 137 119 107 104 95 81 78 71 71 82 118 120 101 171 106 95 40 131 304 331 352 334 324 322 327 344 342 342 347
151 145 146 144 141 143 135 133 133 124 111 119 116 105 107 104 90 85 86 81 69 105 119 118 117 128 97 343 297 326 284 291 323 332 332 331 335 343
142 132 146 140 137 134 137 138 134 130 135 142 125 108 93 118 111 92 81 81 71 68 72 72 112 146 126 191 270 315 332 283 307 340 338 337 329 327
128 126 142 137 128 141 134 128 126 140 148 133 120 108 121 122 114 94 106 102 91 74 52 58 64 82 316 229 210 276 229 317 322 331 325 318 316 315
121 119 130 126 128 139 115 114 120 132 131 129 133 128 132 120 94 89 90 78 85 101 12 354 4 337 229 209 289 259 292 285 312 320 324 315 312 308
124 141 143 146 153 146 136 128 130 134 129 131 131 136 136 136 130 102 79 82 100 85 88 337 8 6 352 322 183 243 295 282 314 315 317 313 306 318
132 142 145 149 147 145 132 142 138 133 136 131 136 133 129 132 138 112 102 107 93 86 46 66 56 84 41 344 303 310 217 273 285 313 293 278 296 307
132 140 144 143 142 140 142 139 134 135 127 126 133 129 132 136 126 124 126 117 120 98 46 353 75 202 138 208 254 264 311 300 325 315 312 295 280 294
132 134 138 136 137 138 137 137 135 129 131 133 125 131 129 125 118 115 135 141 131 115 144 238 247 76 124 61 8 302 289 317 324 313 306 299 277 280
120 126 131 132 138 138 137 134 126 128 129 124 128 122 117 124 131 138 129 124 141 160 178 288 343 39 68 130 296 285 302 314 321 318 313 307 280 310
122 127 131 132 135 134 135 132 129 132 129 125 125 121 132 128 133 134 126 122 127 92 90 334 339 23 326 171 273 280 302 312 303 318 317 315 314 312